Time,TemperatureF,DewpointF,PressureIn,WindDirection,WindDirectionDegrees,WindSpeedMPH,WindSpeedGustMPH,Humidity,HourlyPrecipIn,Conditions,Clouds,dailyrainin,SolarRadiationWatts/m^2,SoftwareType,DateUTC
2013-01-10 00:02:00,32.0,31.0,-100.00,SSE,162,3.0,6.0,97,0.00,,,0.19,0.000000,,2013-01-10 07:02:00,
2013-01-10 00:11:00,32.0,31.0,-100.00,SSE,162,3.0,6.0,97,0.00,,,0.19,0.000000,,2013-01-10 07:11:00,
2013-01-10 00:42:00,32.0,28.0,-100.00,SE,135,1.0,8.0,86,0.00,,,0.19,0.000000,,2013-01-10 07:42:00,
2013-01-10 00:52:00,32.0,28.0,-100.00,SE,135,1.0,8.0,86,0.00,,,0.19,0.000000,,2013-01-10 07:52:00,
2013-01-10 01:01:00,32.0,28.0,-100.00,SE,135,1.0,8.0,86,0.00,,,0.19,0.000000,,2013-01-10 08:01:00,
2013-01-10 01:11:00,32.0,28.0,-100.00,SE,135,1.0,8.0,86,0.00,,,0.19,0.000000,,2013-01-10 08:11:00,
2013-01-10 01:42:00,31.0,30.0,-100.00,SE,129,2.0,5.0,96,0.00,,,0.19,0.000000,,2013-01-10 08:42:00,
2013-01-10 01:53:00,31.0,30.0,-100.00,SE,129,2.0,5.0,96,0.00,,,0.19,0.000000,,2013-01-10 08:53:00,
2013-01-10 02:02:00,31.0,30.0,-100.00,SE,129,2.0,5.0,96,0.00,,,0.19,0.000000,,2013-01-10 09:02:00,
2013-01-10 02:12:00,31.0,30.0,-100.00,SE,129,2.0,5.0,96,0.00,,,0.19,0.000000,,2013-01-10 09:12:00,
2013-01-10 02:43:00,29.0,27.0,-100.00,SE,127,2.0,4.0,93,0.00,,,0.19,0.000000,,2013-01-10 09:43:00,
2013-01-10 02:52:00,29.0,27.0,-100.00,SE,127,2.0,4.0,93,0.00,,,0.19,0.000000,,2013-01-10 09:52:00,
2013-01-10 03:02:00,29.0,27.0,-100.00,SE,127,2.0,4.0,93,0.00,,,0.19,0.000000,,2013-01-10 10:02:00,
2013-01-10 03:11:00,29.0,27.0,-100.00,SE,127,2.0,4.0,93,0.00,,,0.19,0.000000,,2013-01-10 10:11:00,
2013-01-10 03:33:00,28.0,27.0,-100.00,ESE,116,1.0,3.0,97,0.00,,,-99.99,0.000000,,2013-01-10 10:33:00,
2013-01-10 03:42:00,28.0,27.0,-100.00,ESE,116,1.0,3.0,97,0.00,,,-99.99,0.000000,,2013-01-10 10:42:00,
2013-01-10 03:52:00,28.0,27.0,-100.00,ESE,116,1.0,3.0,97,0.00,,,-99.99,0.000000,,2013-01-10 10:52:00,
2013-01-10 04:02:00,28.0,27.0,-100.00,ESE,116,1.0,3.0,97,0.00,,,-99.99,0.000000,,2013-01-10 11:02:00,
2013-01-10 04:12:00,28.0,27.0,-100.00,ESE,116,1.0,3.0,97,0.00,,,-99.99,0.000000,,2013-01-10 11:12:00,
2013-01-10 04:43:00,28.0,28.0,-100.00,North,8,2.0,4.0,98,0.00,,,0.12,0.000000,,2013-01-10 11:43:00,
2013-01-10 04:53:00,28.0,28.0,-100.00,North,8,2.0,4.0,98,0.00,,,0.12,0.000000,,2013-01-10 11:53:00,
2013-01-10 05:02:00,28.0,28.0,-100.00,North,8,2.0,4.0,98,0.00,,,0.12,0.000000,,2013-01-10 12:02:00,
2013-01-10 05:12:00,28.0,28.0,-100.00,North,8,2.0,4.0,98,0.00,,,0.12,0.000000,,2013-01-10 12:12:00,
2013-01-10 07:33:00,27.0,26.0,-100.00,NW,321,2.0,4.0,97,-99.99,,,0.07,0.000000,,2013-01-10 14:33:00,
2013-01-10 07:43:00,27.0,26.0,-100.00,NW,321,2.0,4.0,97,-99.99,,,0.07,0.000000,,2013-01-10 14:43:00,
2013-01-10 07:53:00,27.0,26.0,-100.00,NW,321,2.0,4.0,97,-99.99,,,0.07,0.000000,,2013-01-10 14:53:00,
2013-01-10 08:03:00,27.0,26.0,-100.00,NW,321,2.0,4.0,97,-99.99,,,0.07,0.000000,,2013-01-10 15:03:00,
2013-01-10 08:12:00,27.0,26.0,-100.00,NW,321,2.0,4.0,97,-99.99,,,0.07,0.000000,,2013-01-10 15:12:00,
2013-01-10 08:43:00,27.0,26.0,-100.00,ENE,71,1.0,4.0,97,0.00,,,-99.99,0.000000,,2013-01-10 15:43:00,
2013-01-10 08:53:00,27.0,26.0,-100.00,ENE,71,1.0,4.0,97,0.00,,,-99.99,0.000000,,2013-01-10 15:53:00,
2013-01-10 09:02:00,27.0,26.0,-100.00,ENE,71,1.0,4.0,97,0.00,,,-99.99,0.000000,,2013-01-10 16:02:00,
2013-01-10 09:12:00,27.0,26.0,-100.00,ENE,71,1.0,4.0,97,0.00,,,-99.99,0.000000,,2013-01-10 16:12:00,
2013-01-10 09:43:00,27.0,26.0,-100.00,NE,49,1.0,4.0,97,0.00,,,0.07,6.000000,,2013-01-10 16:43:00,
2013-01-10 09:53:00,27.0,26.0,-100.00,NE,49,1.0,4.0,97,0.00,,,0.07,6.000000,,2013-01-10 16:53:00,
2013-01-10 10:02:00,27.0,26.0,-100.00,NE,49,1.0,4.0,97,0.00,,,0.07,6.000000,,2013-01-10 17:02:00,
2013-01-10 10:12:00,27.0,26.0,-100.00,NE,49,1.0,4.0,97,0.00,,,0.07,6.000000,,2013-01-10 17:12:00,
2013-01-10 10:43:00,28.0,26.0,-100.00,North,6,2.0,6.0,93,0.00,,,0.07,19.000000,,2013-01-10 17:43:00,
2013-01-10 10:53:00,28.0,26.0,-100.00,North,6,2.0,6.0,93,0.00,,,0.07,19.000000,,2013-01-10 17:53:00,
2013-01-10 11:03:00,28.0,26.0,-100.00,North,6,2.0,6.0,93,0.00,,,0.07,19.000000,,2013-01-10 18:03:00,
2013-01-10 11:12:00,28.0,26.0,-100.00,North,6,2.0,6.0,93,0.00,,,0.07,19.000000,,2013-01-10 18:12:00,
2013-01-10 11:43:00,28.0,27.0,-100.00,NNE,23,3.0,5.0,94,0.00,,,0.07,16.000000,,2013-01-10 18:43:00,
2013-01-10 11:53:00,28.0,27.0,-100.00,NNE,23,3.0,5.0,94,0.00,,,0.07,16.000000,,2013-01-10 18:53:00,
2013-01-10 12:02:00,28.0,27.0,-100.00,NNE,23,3.0,5.0,94,0.00,,,0.07,16.000000,,2013-01-10 19:02:00,
2013-01-10 12:12:00,28.0,27.0,-100.00,NNE,23,3.0,5.0,94,0.00,,,0.07,16.000000,,2013-01-10 19:12:00,
2013-01-10 12:43:00,29.0,27.0,-100.00,NNW,344,4.0,8.0,91,0.00,,,-99.99,18.000000,,2013-01-10 19:43:00,
2013-01-10 12:53:00,29.0,27.0,-100.00,NNW,344,4.0,8.0,91,0.00,,,-99.99,18.000000,,2013-01-10 19:53:00,
2013-01-10 13:02:00,29.0,27.0,-100.00,NNW,344,4.0,8.0,91,0.00,,,-99.99,18.000000,,2013-01-10 20:02:00,
2013-01-10 13:12:00,29.0,27.0,-100.00,NNW,344,4.0,8.0,91,0.00,,,-99.99,18.000000,,2013-01-10 20:12:00,
2013-01-10 13:43:00,28.0,23.0,-100.00,NW,326,4.0,9.0,82,0.00,,,0.06,21.000000,,2013-01-10 20:43:00,
2013-01-10 13:53:00,28.0,23.0,-100.00,NW,326,4.0,9.0,82,0.00,,,0.06,21.000000,,2013-01-10 20:53:00,
2013-01-10 14:03:00,28.0,23.0,-100.00,NW,326,4.0,9.0,82,0.00,,,0.06,21.000000,,2013-01-10 21:03:00,
2013-01-10 14:12:00,28.0,23.0,-100.00,NW,326,4.0,9.0,82,0.00,,,0.06,21.000000,,2013-01-10 21:12:00,
2013-01-10 14:43:00,27.0,23.0,-100.00,NW,314,2.0,7.0,86,0.00,,,0.06,17.000000,,2013-01-10 21:43:00,
2013-01-10 14:53:00,27.0,23.0,-100.00,NW,314,2.0,7.0,86,0.00,,,0.06,17.000000,,2013-01-10 21:53:00,
2013-01-10 15:03:00,27.0,23.0,-100.00,NW,314,2.0,7.0,86,0.00,,,0.06,17.000000,,2013-01-10 22:03:00,
2013-01-10 15:12:00,27.0,23.0,-100.00,NW,314,2.0,7.0,86,0.00,,,0.06,17.000000,,2013-01-10 22:12:00,
2013-01-10 15:44:00,26.0,22.0,-100.00,NW,326,4.0,7.0,86,0.00,,,0.06,14.000000,,2013-01-10 22:44:00,
2013-01-10 16:02:00,26.0,22.0,-100.00,NW,326,4.0,7.0,86,0.00,,,0.06,14.000000,,2013-01-10 23:02:00,
2013-01-10 16:12:00,26.0,22.0,-100.00,NW,326,4.0,7.0,86,0.00,,,0.06,14.000000,,2013-01-10 23:12:00,
2013-01-10 16:43:00,24.0,21.0,-100.00,NW,318,2.0,7.0,89,0.00,,,0.06,7.000000,,2013-01-10 23:43:00,
2013-01-10 16:53:00,24.0,21.0,-100.00,NW,318,2.0,7.0,89,0.00,,,0.06,7.000000,,2013-01-10 23:53:00,
2013-01-10 17:02:00,24.0,21.0,-100.00,NW,318,2.0,7.0,89,0.00,,,0.06,7.000000,,2013-01-11 00:02:00,
2013-01-10 17:12:00,24.0,21.0,-100.00,NW,318,2.0,7.0,89,0.00,,,0.06,7.000000,,2013-01-11 00:12:00,
2013-01-10 17:43:00,23.0,19.0,-100.00,North,357,5.0,9.0,85,0.00,,,0.06,2.000000,,2013-01-11 00:43:00,
2013-01-10 17:53:00,23.0,19.0,-100.00,North,357,5.0,9.0,85,0.00,,,0.06,2.000000,,2013-01-11 00:53:00,
2013-01-10 18:02:00,23.0,19.0,-100.00,North,357,5.0,9.0,85,0.00,,,0.06,2.000000,,2013-01-11 01:02:00,
2013-01-10 18:12:00,23.0,19.0,-100.00,North,357,5.0,9.0,85,0.00,,,0.06,2.000000,,2013-01-11 01:12:00,
2013-01-10 18:43:00,22.0,17.0,-100.00,NNW,333,5.0,11.0,81,0.00,,,0.06,0.000000,,2013-01-11 01:43:00,
2013-01-10 18:53:00,22.0,17.0,-100.00,NNW,333,5.0,11.0,81,0.00,,,0.06,0.000000,,2013-01-11 01:53:00,
2013-01-10 19:02:00,22.0,17.0,-100.00,NNW,333,5.0,11.0,81,0.00,,,0.06,0.000000,,2013-01-11 02:02:00,
2013-01-10 19:12:00,22.0,17.0,-100.00,NNW,333,5.0,11.0,81,0.00,,,0.06,0.000000,,2013-01-11 02:12:00,
2013-01-10 19:43:00,22.0,16.0,-100.00,NW,321,4.0,10.0,77,0.00,,,0.01,0.000000,,2013-01-11 02:43:00,
2013-01-10 19:54:00,22.0,16.0,-100.00,NW,321,4.0,10.0,77,0.00,,,0.01,0.000000,,2013-01-11 02:54:00,
2013-01-10 20:02:00,22.0,16.0,-100.00,NW,321,4.0,10.0,77,0.00,,,0.01,0.000000,,2013-01-11 03:02:00,
2013-01-10 20:12:00,22.0,16.0,-100.00,NW,321,4.0,10.0,77,0.00,,,0.01,0.000000,,2013-01-11 03:12:00,
2013-01-10 20:33:00,21.0,14.0,-100.00,NW,305,3.0,11.0,73,0.00,,,0.00,0.000000,,2013-01-11 03:33:00,
2013-01-10 20:43:00,21.0,14.0,-100.00,NW,305,3.0,11.0,73,0.00,,,0.00,0.000000,,2013-01-11 03:43:00,
2013-01-10 20:53:00,21.0,14.0,-100.00,NW,305,3.0,11.0,73,0.00,,,0.00,0.000000,,2013-01-11 03:53:00,
2013-01-10 21:02:00,21.0,14.0,-100.00,NW,305,3.0,11.0,73,0.00,,,0.00,0.000000,,2013-01-11 04:02:00,
2013-01-10 21:12:00,21.0,14.0,-100.00,NW,305,3.0,11.0,73,0.00,,,0.00,0.000000,,2013-01-11 04:12:00,
2013-01-10 21:33:00,20.0,14.0,-100.00,NNW,329,2.0,7.0,76,0.00,,,-99.99,0.000000,,2013-01-11 04:33:00,
2013-01-10 21:43:00,20.0,14.0,-100.00,NNW,329,2.0,7.0,76,0.00,,,-99.99,0.000000,,2013-01-11 04:43:00,
2013-01-10 21:53:00,20.0,14.0,-100.00,NNW,329,2.0,7.0,76,0.00,,,-99.99,0.000000,,2013-01-11 04:53:00,
2013-01-10 22:03:00,20.0,14.0,-100.00,NNW,329,2.0,7.0,76,0.00,,,-99.99,0.000000,,2013-01-11 05:03:00,
2013-01-10 22:12:00,20.0,14.0,-100.00,NNW,329,2.0,7.0,76,0.00,,,-99.99,0.000000,,2013-01-11 05:12:00,
2013-01-10 22:33:00,19.0,15.0,-100.00,North,4,2.0,5.0,83,0.00,,,0.00,0.000000,,2013-01-11 05:33:00,
2013-01-10 22:43:00,19.0,15.0,-100.00,North,4,2.0,5.0,83,0.00,,,0.00,0.000000,,2013-01-11 05:43:00,
2013-01-10 22:53:00,19.0,15.0,-100.00,North,4,2.0,5.0,83,0.00,,,0.00,0.000000,,2013-01-11 05:53:00,
2013-01-10 23:02:00,19.0,15.0,-100.00,North,4,2.0,5.0,83,0.00,,,0.00,0.000000,,2013-01-11 06:02:00,
2013-01-10 23:11:00,19.0,15.0,-100.00,North,4,2.0,5.0,83,0.00,,,0.00,0.000000,,2013-01-11 06:11:00,
2013-01-10 23:42:00,19.0,13.0,-100.00,NNW,340,2.0,6.0,78,0.00,,,0.00,0.000000,,2013-01-11 06:42:00,
2013-01-10 23:52:00,19.0,13.0,-100.00,NNW,340,2.0,6.0,78,0.00,,,0.00,0.000000,,2013-01-11 06:52:00,